KN4RPA Weather Reports


time (UTC)temp
F
wind
direction
speed
knots
gust
knots
rain 1hr
in
rain 24hr
in
rain mn
in
humidity
%
barometer
mb
20260906154549 78 155 0.0 5.2 0.00 0.38 0.00 56 1013.7
20260906153045 76 155 0.0 4.3 0.00 0.38 0.00 62 1013.9
20260906151545 76 155 0.0 2.6 0.00 0.38 0.00 63 1013.8
20260906150038 74 155 1.7 6.1 0.00 0.38 0.00 64 1013.6
20260906144542 74 155 0.0 4.3 0.00 0.38 0.00 69 1013.6
20260906143029 72 155 0.0 4.3 0.00 0.38 0.00 72 1013.5
20260906141526 71 155 0.0 3.5 0.00 0.38 0.00 75 1013.5
20260906140024 70 155 0.0 0.9 0.00 0.38 0.00 79 1013.5
20260906134523 69 155 0.0 0.9 0.00 0.38 0.00 81 1013.3
20260906133020 68 155 0.0 1.7 0.00 0.38 0.00 83 1013.5
20260906131519 68 155 0.0 2.6 0.00 0.38 0.00 85 1013.4
20260906130016 67 155 0.0 2.6 0.00 0.38 0.00 86 1013.3
20260906124515 66 155 0.0 2.6 0.00 0.38 0.00 88 1013.2
20260906123012 66 155 0.0 5.2 0.00 0.38 0.00 89 1013.2
20260906121514 65 155 0.0 4.3 0.00 0.38 0.00 90 1013.0
20260906120009 65 155 0.0 1.7 0.00 0.38 0.00 90 1012.8
20260906114513 65 155 0.0 1.7 0.00 0.38 0.00 91 1012.7
20260906113007 65 155 0.0 0.0 0.00 0.38 0.00 91 1012.5
20260906111502 65 155 0.0 1.7 0.00 0.38 0.00 91 1012.4
20260906110100 65 155 0.0 2.6 0.00 0.38 0.00 91 1012.1
20260906104557 65 155 0.0 2.6 0.00 0.38 0.00 92 1012.0
20260906103058 66 155 0.0 1.7 0.00 0.38 0.00 92 1011.9
20260906101553 66 155 0.0 1.7 0.00 0.38 0.00 92 1011.7
20260906100056 66 155 0.0 1.7 0.00 0.38 0.00 92 1011.4
20260906094552 66 155 0.0 0.9 0.00 0.38 0.00 92 1011.5
20260906093050 67 155 0.0 1.7 0.00 0.38 0.00 92 1011.5
20260906091548 67 155 0.0 0.0 0.00 0.38 0.00 92 1011.2
20260906090053 67 155 0.0 0.9 0.00 0.38 0.00 92 1011.1
20260906084545 68 155 0.0 0.0 0.00 0.38 0.00 92 1010.9
20260906083050 68 155 0.0 0.0 0.00 0.38 0.00 92 1010.8
20260906081542 68 155 0.0 0.0 0.00 0.38 0.00 92 1010.6
20260906080044 69 155 0.0 0.0 0.00 0.38 0.00 92 1010.4
20260906074541 69 155 0.0 0.0 0.00 0.38 0.00 92 1010.3
20260906073041 69 155 0.0 0.0 0.00 0.38 0.00 92 1010.4
20260906071540 69 155 0.0 0.0 0.00 0.38 0.00 92 1010.5
20260906070041 69 155 0.0 0.0 0.00 0.38 0.00 92 1010.5
20260906064538 69 155 0.0 0.0 0.00 0.38 0.00 92 1010.6
20260906063037 69 155 0.0 0.0 0.00 0.38 0.00 92 1010.6
20260906061537 70 155 0.0 0.0 0.00 0.38 0.00 92 1010.6
20260906060037 70 155 0.0 0.0 0.00 0.38 0.00 92 1010.4
20260906054552 70 155 0.0 0.0 0.00 0.38 0.00 92 1010.4
20260906053033 70 155 0.0 0.0 0.00 0.38 0.00 91 1010.8
20260906051535 70 155 0.0 0.0 0.00 0.38 0.00 91 1010.9
20260906050029 71 155 0.0 0.0 0.00 0.38 0.00 91 1010.6
20260906044528 71 155 0.0 0.0 0.00 0.38 0.38 91 1010.9
20260906043026 71 155 0.0 0.0 0.00 0.38 0.38 91 1010.9
20260906041530 71 155 0.0 0.0 0.00 0.38 0.38 91 1010.9
20260906040049 72 155 0.0 0.0 0.00 0.38 0.38 91 1010.8
20260906034526 72 155 0.0 0.0 0.00 0.38 0.38 91 1011.1
20260906033039 72 155 0.0 0.0 0.00 0.38 0.38 91 1010.9
20260906031525 72 155 0.0 0.0 0.00 0.38 0.38 90 1010.9
20260906030024 72 155 0.0 0.0 0.00 0.38 0.38 90 1011.0
20260906024523 72 155 0.0 1.7 0.00 0.38 0.38 90 1010.7
20260906023024 72 155 0.0 0.0 0.00 0.38 0.38 90 1010.9
20260906021523 73 155 0.0 0.0 0.00 0.38 0.38 89 1010.8
20260906020022 73 155 0.0 2.6 0.00 0.38 0.38 89 1010.7
20260906014526 73 155 0.0 0.0 0.00 0.38 0.38 89 1010.6
20260906013021 74 155 0.0 0.0 0.00 0.38 0.38 89 1010.3
20260906011520 74 155 0.0 0.0 0.00 0.38 0.38 88 1009.9
20260906010021 74 155 0.0 1.7 0.00 0.38 0.38 88 1009.8
20260906004520 74 155 0.0 1.7 0.00 0.38 0.38 87 1009.9
20260906003019 75 155 0.0 2.6 0.00 0.38 0.38 87 1009.8
20260906001518 75 155 0.0 0.0 0.00 0.38 0.38 86 1009.3
20260906000018 75 155 0.0 0.0 0.00 0.38 0.38 86 1009.3
20260905234519 75 155 0.0 0.9 0.00 0.38 0.38 86 1009.3
20260905233017 75 155 0.0 0.0 0.00 0.38 0.38 86 1009.4
20260905231520 76 155 0.0 0.0 0.00 0.38 0.38 86 1009.4
20260905230016 76 155 0.0 0.0 0.00 0.38 0.38 86 1009.2
20260905224534 76 155 0.0 0.0 0.00 0.38 0.38 86 1009.3
20260905223018 76 155 0.0 0.0 0.00 0.38 0.38 87 1009.3
20260905221515 76 155 0.0 0.0 0.00 0.38 0.38 88 1009.2
20260905220013 76 155 0.0 0.0 0.00 0.38 0.38 89 1009.2
20260905214514 76 155 0.0 0.0 0.00 0.38 0.38 89 1008.9
20260905213012 75 155 0.0 0.0 0.00 0.38 0.38 90 1009.1
20260905211534 75 155 0.0 0.9 0.00 0.38 0.38 90 1008.9
20260905210019 75 155 0.0 0.0 0.00 0.38 0.38 91 1008.9
20260905204510 74 155 0.0 0.0 0.00 0.38 0.38 92 1009.0
20260905203010 74 155 0.0 5.2 0.00 0.38 0.38 92 1009.0
20260905201510 73 155 0.0 0.0 0.00 0.38 0.38 92 1009.0
20260905200020 73 155 0.0 0.0 0.00 0.38 0.38 92 1009.1
20260905194509 74 155 0.0 0.9 0.00 0.38 0.38 92 1009.2
20260905193010 74 153 0.0 0.9 0.00 0.38 0.38 92 1009.3
20260905191506 74 153 0.0 0.9 0.00 0.38 0.38 93 1009.3
20260905190006 73 153 0.0 0.9 0.00 0.38 0.38 92 1009.6
20260905184511 73 153 0.0 1.7 0.00 0.38 0.38 92 1009.7
20260905183002 73 153 0.0 2.6 0.00 0.38 0.38 92 1010.2
20260905181501 73 43 0.0 0.9 0.00 0.38 0.38 91 1010.1
20260905180106 73 43 0.0 0.0 0.01 0.38 0.38 90 1009.5
20260905174600 72 43 0.0 1.7 0.03 0.38 0.38 89 1009.1
20260905173128 72 43 0.0 0.0 0.16 0.38 0.38 88 1009.2
20260905171600 72 43 0.0 0.9 0.36 0.38 0.38 87 1009.8
20260905170112 72 43 0.0 0.0 0.37 0.37 0.37 85 1009.9
20260905164606 73 43 0.0 0.9 0.35 0.35 0.35 82 1010.5
20260905163103 76 254 0.9 5.2 0.19 0.19 0.19 78 1012.1
20260905161606 78 325 0.0 0.9 0.01 0.01 0.01 73 1011.6
20260905160053 78 325 0.0 4.3 0.00 0.00 0.00 72 1011.1